STARLINK A (44235 NORAD) Tracking and Keplerian Element Data

This shows tracking and keplerian element data for the satellite.

Feedback or suggestion? Click here.




ElementValue
Catalog44235
NameSTARLINK A
Epoch Orbit1404
Epoch Day228.88409282
Epoch Year2019
RAAN151.6742
Inclination52.999
Eccentricity3.85E-05
Argument of Perigee310.5661
Mean Anonmoly49.5293
Mean Motion15.05503034
Decay Rate-2.5E-06
L11 44235U 19029A 19228.88409282 -.00000250 00000-0 19576-5 0 9993
L22 44235 52.9990 151.6742 0000385 310.5661 49.5293 15.05503034 14045

Live tracking and technical data element details for STARLINK A (NORAD 44235). STARLINK A can be tracked NOW for your location showing map with azimuth and elevation plus other details from your city location.

Track the satellite on the map from your city or location and see movement details for azimuth, elevation, latitude, longitude, range, height, and movement on the map or in text.







IsCatalogInMostPopularTable: catalog: 44235, numindb: 337
Update: records affected: 1



GetName: 44235 STARLINK A

Hit Count: updated at: Wed, 21 Aug 2019 12:02:19 GMT